Flag for Canada

Past Weather in Vancouver, British Columbia, Canada — January 2020

Now
72 °F

Passing clouds.


Feels Like: 76 °F
Forecast: 78 / 60 °F
Wind: 15 mph from Southeast

Location: Vancouver International Airport

Current Time: Aug 5, 2020 at 1:11:30 pm

Latest Report: Aug 5, 2020 at 12:00 pm


Visibility: 20 mi

Pressure: 29.92 "Hg

Humidity: 57%

Dew Point: 55 °F

Location of VancouverLocation

January 2020 Weather in Vancouver — Graph

°F

High & Low Weather Summary for January 2020

 TemperatureHumidityPressure
High54 °F (Jan 3, 5:00 pm)100% (Jan 2, 10:00 pm)30.30 "Hg (Jan 2, 10:00 pm)
Low18 °F (Jan 14, 6:00 am)54% (Jan 3, 5:00 pm)29.33 "Hg (Jan 15, 10:00 pm)
Average40 °F87%29.90 "Hg
* Reported Jan 1 12:00 am — Jan 31 11:45 pm, Vancouver. Weather by CustomWeather, © 2020

Note: Actual official high and low records may vary slightly from our data, if they occured in-between our weather recording intervals... More about our weather records

Vancouver Weather History for January 1, 2020

Scroll right to see more
 ConditionsComfort  
Time TempWeatherWind HumidityBarometerVisibility
12:00 am
Wed, Jan 1
50 °FPartly cloudy.16 mph82%29.50 "Hg20 mi
1:00 am48 °FPartly cloudy.15 mph87%29.51 "Hg20 mi
1:52 am48 °FLight rain. Mostly cloudy.12 mph87%29.51 "Hg20 mi
2:00 am48 °FLight rain. Mostly cloudy.10 mph87%29.52 "Hg12 mi
2:41 am46 °FMostly cloudy.8 mph93%29.52 "Hg20 mi
3:00 am46 °FMostly cloudy.6 mph87%29.53 "Hg20 mi
4:00 am46 °FMostly cloudy.3 mph87%29.55 "Hg20 mi
5:00 am46 °FPartly cloudy.5 mph87%29.56 "Hg20 mi
6:00 am43 °FPartly cloudy.6 mph93%29.58 "Hg20 mi
7:00 am45 °FPassing clouds.2 mph93%29.62 "Hg20 mi
8:00 am45 °FPassing clouds.12 mph93%29.65 "Hg20 mi
9:00 am46 °FPassing clouds.9 mph87%29.68 "Hg20 mi
10:00 am48 °FPassing clouds.9 mph87%29.72 "Hg20 mi
11:00 am50 °FPassing clouds.7 mph82%29.74 "Hg20 mi
12:00 pm52 °FPassing clouds.5 mph77%29.75 "Hg20 mi
1:00 pm52 °FPassing clouds.6 mph72%29.75 "Hg20 mi
2:00 pm50 °FScattered clouds.7 mph76%29.77 "Hg20 mi
3:00 pm50 °FPartly sunny.5 mph76%29.76 "Hg20 mi
4:00 pm50 °FPartly sunny.5 mph76%29.78 "Hg20 mi
5:00 pm48 °FPassing clouds.7 mph82%29.76 "Hg20 mi
6:00 pm45 °FPassing clouds.20 mph87%29.79 "Hg20 mi
7:00 pm43 °FPassing clouds.24 mph87%29.83 "Hg15 mi
8:00 pm45 °FPartly cloudy.24 mph76%29.85 "Hg15 mi
9:00 pm43 °FPartly cloudy.32 mph76%29.88 "Hg15 mi
10:00 pm43 °FOvercast.25 mph76%29.92 "Hg15 mi
11:00 pm43 °FPassing clouds.26 mph66%29.95 "Hg15 mi
Weather by CustomWeather, © 2020

See weather overview